Location: Frizzleburg
(41.0764°N, 80.4548°W)
Time: 01:55:46
(UTC+00:00)

Cosmos 2360 - Pass Details

Date: 17 November 2019
Orbit: 845 x 857 km, 70.8° (Epoch: 15 December)

Event Time Altitude Azimuth Distance (km) Brightness Sun altitude
Rises 23:59:52 0° 209° (SSW) 3,396 7.8 -22.1°
Reaches altitude 10° 00:02:19 10° 211° (SSW) 2,466 7.1 -22.6°
Maximum altitude 00:07:58 70° 295° (WNW) 903 4.4 -23.6°
Enters shadow 00:11:37 23° 15° (NNE) 1,739 5.6 -24.3°
